Weather History for Fort Bragg, NC

Change the Weather History Date:

Thursday, October 17, 2013

  Actual Average Record
Temperature  
Mean Temperature 68 °F -  
Max Temperature 80 °F 69 °F 86 °F (2011)
Min Temperature 58 °F 50 °F 43 °F (2010)
Cooling Degree Days 4    
Growing Degree Days 18 (Base 50)    
Moisture  
Dew Point 64 °F    
Average Humidity 81    
Maximum Humidity 99    
Minimum Humidity 58    
Precipitation  
Precipitation 0.01 in - - ()
Sea Level Pressure  
Sea Level Pressure 29.93 in    
Wind  
Wind Speed 2 mph (WSW)    
Max Wind Speed 10 mph    
Max Gust Speed -    
Visibility 10 miles    
Events      
Averages and records for this station are not official NWS values.
T = Trace of Precipitation, MM = Missing Value Source: NWS Daily Summary

Daily Weather History Graph

Daily Weather History Graph

Search for Another Location

Airport:

Trip Planner

Search our weather history database for the weather conditions in past years. The results will help you decide how hot, cold, wet, or windy it might be!

Date:

Astronomy

Oct. 17, 2013 Rise Set
Actual Time 7:23 AM EDT 6:37 PM EDT
Civil Twilight 6:58 AM EDT 7:03 PM EDT
Nautical Twilight 6:28 AM EDT 7:32 PM EDT
Astronomical Twilight 5:59 AM EDT 8:02 PM EDT
Moon 5:49 PM EDT (10/17) 5:56 AM EDT (10/17)
Length of Visible Light 12h 05m
Length of Day
11h 14m
Waxing Gibbous, 98% of the Moon is Illuminated
Oct 17
Waxing Gibbous
Oct 18
Full
Oct 26
Last Quarter
Nov 3
New
Nov 10
First Quarter

Hourly Weather History & Observations

Time (EDT) Temp. Dew Point Humidity Pressure Visibility Wind Dir Wind Speed Gust Speed Precip Events Conditions
12:58 AM 61.7 °F 61.3 °F 99% 29.98 in 10.0 mi Calm Calm - N/A   Clear
1:58 AM 61.5 °F 61.2 °F 99% 29.98 in 10.0 mi WNW 1.2 mph - N/A   Partly Cloudy
2:58 AM 60.3 °F 59.9 °F 99% 29.96 in 10.0 mi Calm Calm - N/A   Clear
3:58 AM 58.8 °F 58.5 °F 99% 29.96 in 10.0 mi Calm Calm - N/A   Clear
4:58 AM 60.4 °F 60.1 °F 99% 29.95 in 10.0 mi Calm Calm - N/A   Clear
5:58 AM 59.9 °F 59.7 °F 99% 29.95 in 10.0 mi Calm Calm - N/A   Mostly Cloudy
6:58 AM 60.6 °F 60.3 °F 99% 29.96 in 10.0 mi Calm Calm - N/A   Mostly Cloudy
7:58 AM 62.2 °F 61.9 °F 99% 29.97 in 10.0 mi Calm Calm - N/A   Scattered Clouds
8:58 AM 64.0 °F 63.7 °F 99% 29.97 in 10.0 mi Calm Calm - N/A   Partly Cloudy
9:58 AM 69.4 °F 64.9 °F 86% 29.98 in 10.0 mi SW 5.8 mph - N/A   Clear
10:58 AM 71.2 °F 66.7 °F 86% 29.98 in 10.0 mi Calm Calm - N/A   Clear
10:59 AM 71.2 °F 66.7 °F 86% 29.97 in 10.0 mi WSW 6.9 mph - N/A   Clear
11:58 AM 73.8 °F 66.7 °F 79% 29.96 in 10.0 mi SW 9.2 mph - N/A   Scattered Clouds
12:12 PM 75.2 °F 66.2 °F 73% 29.95 in 10.0 mi Calm Calm - N/A   Mostly Cloudy
12:20 PM 75.2 °F 66.2 °F 73% 29.95 in 10.0 mi Calm Calm - N/A   Scattered Clouds
12:58 PM 77.0 °F 65.5 °F 67% 29.93 in 10.0 mi WSW 9.2 mph - 0.01 in   Partly Cloudy
1:50 PM 77.4 °F 64.6 °F 65% 29.91 in 10.0 mi WSW 6.9 mph - N/A   Partly Cloudy
1:58 PM 77.4 °F 64.6 °F 65% 29.91 in 10.0 mi Calm Calm - N/A   Partly Cloudy
2:58 PM 79.9 °F 63.7 °F 58% 29.89 in 10.0 mi Calm Calm - N/A   Partly Cloudy
3:56 PM 79.0 °F 63.3 °F 59% 29.87 in 10.0 mi SW 10.4 mph - N/A   Partly Cloudy
4:56 PM 78.1 °F 62.8 °F 59% 29.87 in 10.0 mi SW 8.1 mph - N/A   Scattered Clouds
4:58 PM 78.1 °F 62.8 °F 59% 29.88 in 10.0 mi Calm Calm - N/A   Scattered Clouds
5:56 PM 76.1 °F 64.8 °F 68% 29.88 in 10.0 mi West 4.6 mph - N/A   Scattered Clouds
5:58 PM 75.2 °F 65.3 °F 71% 29.88 in 10.0 mi West 4.6 mph - N/A   Scattered Clouds
6:58 PM 75.2 °F 66.2 °F 73% 29.88 in 10.0 mi WSW 3.5 mph - N/A   Partly Cloudy
7:58 PM 74.7 °F 66.4 °F 75% 29.88 in 10.0 mi NNW 3.5 mph - N/A   Partly Cloudy
8:58 PM 73.4 °F 66.2 °F 78% 29.89 in 10.0 mi West 5.8 mph - N/A   Overcast
9:58 PM 72.5 °F 66.6 °F 82% 29.89 in 10.0 mi WSW 5.8 mph - N/A   Scattered Clouds
10:58 PM 71.6 °F 66.2 °F 83% 29.89 in 10.0 mi West 4.6 mph - N/A   Mostly Cloudy
11:55 PM 71.4 °F 67.1 °F 86% 29.91 in 10.0 mi West 6.9 mph - N/A   Scattered Clouds